EZY74UE EGGD-LGZA

Flight info

Callsign EZY74UE
Flight time 3h 16m
Altitude 35000
Route YORQI DCT NUCHU L607 BIG L15 MOTOX DCT RUCAC DCT LESDO DCT ETINO DCT LUPEN DCT BATUB DCT MOMUK DCT GEDSO DCT VEKEN DCT NERRA DCT RODON DCT LIMJA DCT PITAS UN732 KRK UT321 ASTUS
Aircraft A320/M-SDE2E3FGHIJ1RWXYZ/LB1

Departure

Time 2026-04-26 08:21
Airport Bristol Airport (EGGD)

Arrival

Time 2026-04-26 11:38
Airport Zakynthos International Airport Dionysios Solomos (LGZA)
Time Latitude Longitude Altitude Speed Heading
2026-04-26 08:11 51.38525 -2.70907 611 ft 0 kts 267°
2026-04-26 08:14 51.38525 -2.70899 625 ft 4 kts 265°
2026-04-26 08:15 51.38531 -2.70858 619 ft 4 kts 233°
2026-04-26 08:15 51.38550 -2.70836 621 ft 3 kts 179°
2026-04-26 08:15 51.38558 -2.70837 608 ft 0 kts 176°
2026-04-26 08:17 51.38557 -2.70837 608 ft 1 kts 176°
2026-04-26 08:17 51.38523 -2.70833 620 ft 5 kts 176°
2026-04-26 08:17 51.38479 -2.70841 612 ft 9 kts 212°
2026-04-26 08:17 51.38462 -2.70962 614 ft 16 kts 266°
2026-04-26 08:18 51.38454 -2.71173 618 ft 19 kts 265°
2026-04-26 08:18 51.38447 -2.71372 615 ft 19 kts 266°
2026-04-26 08:18 51.38437 -2.71618 612 ft 26 kts 266°
2026-04-26 08:18 51.38430 -2.71926 606 ft 28 kts 271°
2026-04-26 08:19 51.38423 -2.72230 611 ft 27 kts 266°
2026-04-26 08:19 51.38410 -2.72525 622 ft 26 kts 266°
2026-04-26 08:19 51.38399 -2.72817 615 ft 27 kts 266°
2026-04-26 08:19 51.38390 -2.73087 615 ft 18 kts 266°
2026-04-26 08:20 51.38373 -2.73279 624 ft 16 kts 242°
2026-04-26 08:20 51.38285 -2.73343 619 ft 11 kts 176°
2026-04-26 08:20 51.38231 -2.73321 635 ft 8 kts 156°
2026-04-26 08:20 51.38215 -2.73244 628 ft 9 kts 86°
2026-04-26 08:21 51.38229 -2.72898 625 ft 68 kts 86°
2026-04-26 08:21 51.38273 -2.71754 620 ft 136 kts 86°
2026-04-26 08:21 51.38340 -2.70015 933 ft 165 kts 87°
2026-04-26 08:21 51.38396 -2.68129 1722 ft 172 kts 88°
2026-04-26 08:22 51.38460 -2.66112 2066 ft 194 kts 89°
2026-04-26 08:22 51.38526 -2.63815 2437 ft 220 kts 90°
2026-04-26 08:22 51.38598 -2.61236 3006 ft 244 kts 89°
2026-04-26 08:22 51.38760 -2.58460 3771 ft 255 kts 84°
2026-04-26 08:23 51.39007 -2.55613 4628 ft 261 kts 83°
2026-04-26 08:23 51.39284 -2.52678 5518 ft 266 kts 82°
2026-04-26 08:23 51.39566 -2.49770 6379 ft 270 kts 82°
2026-04-26 08:23 51.39860 -2.46770 7167 ft 275 kts 81°
2026-04-26 08:24 51.40152 -2.43723 7920 ft 279 kts 82°
2026-04-26 08:24 51.40442 -2.40625 8686 ft 283 kts 82°
2026-04-26 08:24 51.40732 -2.37475 9468 ft 288 kts 82°
2026-04-26 08:24 51.41026 -2.34277 10246 ft 292 kts 82°
2026-04-26 08:25 51.41326 -2.30976 10655 ft 310 kts 82°
2026-04-26 08:25 51.41644 -2.27431 10893 ft 332 kts 82°
2026-04-26 08:25 51.41978 -2.23709 11406 ft 342 kts 82°
2026-04-26 08:25 51.42321 -2.19916 12065 ft 346 kts 82°
2026-04-26 08:26 51.42670 -2.16065 12738 ft 351 kts 83°
2026-04-26 08:26 51.43022 -2.12166 13411 ft 356 kts 83°
2026-04-26 08:26 51.43375 -2.08220 14060 ft 360 kts 83°
2026-04-26 08:26 51.43728 -2.04220 14650 ft 364 kts 83°
2026-04-26 08:27 51.44080 -2.00185 15248 ft 367 kts 83°
2026-04-26 08:27 51.44436 -1.96111 15836 ft 371 kts 83°
2026-04-26 08:27 51.44796 -1.91999 16430 ft 374 kts 83°
2026-04-26 08:27 51.45158 -1.87855 17013 ft 377 kts 83°
2026-04-26 08:28 51.45520 -1.83668 17606 ft 381 kts 83°
2026-04-26 08:28 51.45882 -1.79444 18184 ft 384 kts 83°
2026-04-26 08:28 51.46246 -1.75180 18731 ft 388 kts 83°
2026-04-26 08:28 51.46601 -1.70875 19218 ft 391 kts 86°
2026-04-26 08:29 51.46623 -1.66496 19741 ft 394 kts 96°
2026-04-26 08:29 51.46176 -1.62156 20205 ft 397 kts 104°
2026-04-26 08:29 51.45576 -1.57824 20659 ft 400 kts 104°
2026-04-26 08:29 51.44968 -1.53450 21120 ft 403 kts 103°
2026-04-26 08:30 51.44357 -1.49044 21562 ft 407 kts 103°
2026-04-26 08:30 51.43742 -1.44601 22019 ft 410 kts 103°
2026-04-26 08:30 51.43122 -1.40118 22471 ft 413 kts 103°
2026-04-26 08:30 51.42500 -1.35603 22920 ft 417 kts 103°
2026-04-26 08:31 51.41875 -1.31056 23338 ft 420 kts 103°
2026-04-26 08:31 51.41243 -1.26474 23778 ft 423 kts 103°
2026-04-26 08:31 51.40600 -1.21853 24135 ft 426 kts 103°
2026-04-26 08:31 51.39949 -1.17207 24480 ft 429 kts 103°
2026-04-26 08:32 51.39495 -1.12481 24824 ft 431 kts 95°
2026-04-26 08:32 51.39251 -1.07678 25161 ft 434 kts 95°
2026-04-26 08:32 51.39007 -1.02854 25500 ft 436 kts 95°
2026-04-26 08:32 51.38765 -0.98061 25834 ft 439 kts 95°
2026-04-26 08:33 51.38519 -0.93177 26165 ft 441 kts 95°
2026-04-26 08:33 51.38269 -0.88275 26492 ft 443 kts 95°
2026-04-26 08:33 51.38012 -0.83339 26817 ft 446 kts 95°
2026-04-26 08:33 51.37748 -0.78385 27139 ft 448 kts 95°
2026-04-26 08:34 51.37480 -0.73406 27459 ft 450 kts 95°
2026-04-26 08:34 51.37210 -0.68402 27772 ft 453 kts 95°
2026-04-26 08:34 51.36939 -0.63364 28090 ft 455 kts 95°
2026-04-26 08:34 51.36664 -0.58308 28399 ft 457 kts 95°
2026-04-26 08:35 51.36384 -0.53231 28708 ft 459 kts 95°
2026-04-26 08:35 51.36098 -0.48128 29008 ft 462 kts 95°
2026-04-26 08:35 51.35809 -0.43000 29312 ft 464 kts 95°
2026-04-26 08:35 51.35514 -0.37850 29600 ft 466 kts 95°
2026-04-26 08:36 51.35216 -0.32677 29882 ft 468 kts 95°
2026-04-26 08:36 51.34917 -0.27478 30163 ft 470 kts 95°
2026-04-26 08:36 51.34617 -0.22259 30441 ft 472 kts 95°
2026-04-26 08:36 51.34315 -0.17028 30683 ft 474 kts 95°
2026-04-26 08:37 51.34008 -0.11769 30908 ft 476 kts 95°
2026-04-26 08:37 51.33696 -0.06490 31146 ft 477 kts 95°
2026-04-26 08:37 51.33375 -0.01216 31469 ft 476 kts 96°
2026-04-26 08:37 51.32775 0.03979 31768 ft 476 kts 105°
2026-04-26 08:38 51.31715 0.08986 32069 ft 475 kts 112°
2026-04-26 08:38 51.30460 0.13869 32379 ft 475 kts 112°
2026-04-26 08:38 51.29210 0.18752 32680 ft 475 kts 112°
2026-04-26 08:38 51.27966 0.23633 32982 ft 474 kts 112°
2026-04-26 08:39 51.26725 0.28505 33197 ft 474 kts 112°
2026-04-26 08:39 51.25500 0.33305 33484 ft 473 kts 112°
2026-04-26 08:39 51.24255 0.38169 33785 ft 473 kts 112°
2026-04-26 08:39 51.23010 0.43018 34090 ft 472 kts 112°
2026-04-26 08:40 51.21764 0.47867 34370 ft 472 kts 112°
2026-04-26 08:40 51.20521 0.52706 34623 ft 471 kts 112°
2026-04-26 08:40 51.19277 0.57537 34883 ft 471 kts 112°
2026-04-26 08:40 51.18032 0.62359 35145 ft 470 kts 112°
2026-04-26 08:41 51.16785 0.67172 35253 ft 468 kts 112°
2026-04-26 08:41 51.15541 0.71951 35286 ft 465 kts 112°
2026-04-26 08:41 51.13062 0.81445 35353 ft 464 kts 112°
2026-04-26 08:42 51.10582 0.90909 35352 ft 463 kts 112°
2026-04-26 08:42 51.08109 1.00293 35355 ft 463 kts 112°
2026-04-26 08:43 51.05617 1.09729 35348 ft 463 kts 112°
2026-04-26 08:43 51.03121 1.19165 35355 ft 463 kts 112°
2026-04-26 08:44 51.00614 1.28585 35355 ft 463 kts 112°
2026-04-26 08:44 50.98099 1.37987 35349 ft 463 kts 112°
2026-04-26 08:45 50.95569 1.47378 35339 ft 463 kts 112°
2026-04-26 08:45 50.93060 1.56703 35348 ft 463 kts 112°
2026-04-26 08:46 50.90504 1.66136 35351 ft 463 kts 112°
2026-04-26 08:46 50.87392 1.75027 35350 ft 463 kts 128°
2026-04-26 08:47 50.82924 1.82310 35346 ft 462 kts 137°
2026-04-26 08:47 50.78272 1.89316 35340 ft 462 kts 137°
2026-04-26 08:48 50.73656 1.96275 35336 ft 462 kts 137°
2026-04-26 08:48 50.68970 2.03315 35333 ft 462 kts 137°
2026-04-26 08:49 50.64304 2.10293 35336 ft 462 kts 137°
2026-04-26 08:49 50.59665 2.17209 35336 ft 462 kts 137°
2026-04-26 08:50 50.54989 2.24164 35340 ft 463 kts 137°
2026-04-26 08:50 50.50311 2.31100 35338 ft 462 kts 137°
2026-04-26 08:51 50.44082 2.40303 35332 ft 462 kts 137°
2026-04-26 08:52 50.39396 2.47194 35330 ft 461 kts 137°
2026-04-26 08:52 50.34716 2.54062 35324 ft 461 kts 137°
2026-04-26 08:53 50.30036 2.60915 35318 ft 461 kts 137°
2026-04-26 08:53 50.25353 2.67758 35308 ft 461 kts 137°
2026-04-26 08:54 50.20665 2.74579 35304 ft 461 kts 137°
2026-04-26 08:54 50.15970 2.81389 35310 ft 461 kts 137°
2026-04-26 08:55 50.11278 2.88192 35304 ft 461 kts 137°
2026-04-26 08:55 50.06584 2.94981 35306 ft 461 kts 137°
2026-04-26 08:56 50.01873 3.01751 35309 ft 461 kts 138°
2026-04-26 08:56 49.97166 3.08500 35312 ft 461 kts 138°
2026-04-26 08:57 49.92457 3.15243 35308 ft 460 kts 138°
2026-04-26 08:57 49.87747 3.21959 35306 ft 460 kts 138°
2026-04-26 08:58 49.83037 3.28659 35297 ft 459 kts 138°
2026-04-26 08:58 49.78714 3.35915 35299 ft 459 kts 128°
2026-04-26 08:59 49.74782 3.43615 35296 ft 459 kts 128°
2026-04-26 08:59 49.70805 3.51324 35290 ft 459 kts 129°
2026-04-26 09:00 49.66815 3.59013 35287 ft 458 kts 129°
2026-04-26 09:00 49.62833 3.66695 35291 ft 458 kts 129°
2026-04-26 09:01 49.58851 3.74368 35277 ft 458 kts 129°
2026-04-26 09:01 49.54863 3.82013 35282 ft 458 kts 129°
2026-04-26 09:02 49.50866 3.89635 35265 ft 457 kts 129°
2026-04-26 09:02 49.46890 3.97197 35267 ft 457 kts 129°
2026-04-26 09:03 49.42888 4.04784 35268 ft 457 kts 129°
2026-04-26 09:03 49.38889 4.12373 35270 ft 457 kts 129°
2026-04-26 09:04 49.34892 4.19951 35270 ft 457 kts 129°
2026-04-26 09:04 49.30883 4.27515 35268 ft 457 kts 129°
2026-04-26 09:05 49.26865 4.35050 35262 ft 457 kts 129°
2026-04-26 09:05 49.22843 4.42584 35265 ft 457 kts 129°
2026-04-26 09:06 49.18819 4.50100 35275 ft 457 kts 130°
2026-04-26 09:06 49.14788 4.57602 35278 ft 456 kts 130°
2026-04-26 09:07 49.10760 4.65086 35272 ft 456 kts 130°
2026-04-26 09:07 49.06737 4.72550 35270 ft 455 kts 130°
2026-04-26 09:08 49.02711 4.79995 35269 ft 455 kts 130°
2026-04-26 09:08 48.98710 4.87364 35266 ft 454 kts 130°
2026-04-26 09:09 48.94678 4.94754 35254 ft 453 kts 130°
2026-04-26 09:09 48.90713 5.02204 35254 ft 453 kts 124°
2026-04-26 09:10 48.87977 5.10778 35248 ft 452 kts 106°
2026-04-26 09:10 48.86500 5.20049 35242 ft 452 kts 103°
2026-04-26 09:11 48.85038 5.29327 35246 ft 452 kts 103°
2026-04-26 09:11 48.83555 5.38598 35247 ft 452 kts 103°
2026-04-26 09:12 48.82067 5.47873 35251 ft 452 kts 103°
2026-04-26 09:12 48.80582 5.57139 35250 ft 452 kts 103°
2026-04-26 09:13 48.79097 5.66406 35258 ft 452 kts 103°
2026-04-26 09:13 48.77598 5.75664 35264 ft 452 kts 104°
2026-04-26 09:14 48.76085 5.84905 35270 ft 452 kts 104°
2026-04-26 09:14 48.74568 5.94144 35265 ft 452 kts 104°
2026-04-26 09:15 48.73043 6.03380 35271 ft 451 kts 104°
2026-04-26 09:15 48.71515 6.12594 35273 ft 451 kts 104°
2026-04-26 09:16 48.69978 6.21799 35274 ft 451 kts 104°
2026-04-26 09:16 48.68439 6.30995 35269 ft 451 kts 104°
2026-04-26 09:17 48.66893 6.40185 35262 ft 450 kts 104°
2026-04-26 09:17 48.65342 6.49360 35260 ft 450 kts 105°
2026-04-26 09:18 48.63777 6.58528 35253 ft 450 kts 105°
2026-04-26 09:18 48.62209 6.67683 35247 ft 450 kts 105°
2026-04-26 09:19 48.60633 6.76834 35239 ft 450 kts 105°
2026-04-26 09:19 48.59045 6.85972 35239 ft 450 kts 105°
2026-04-26 09:20 48.57456 6.95103 35241 ft 450 kts 105°
2026-04-26 09:20 48.55865 7.04229 35246 ft 449 kts 105°
2026-04-26 09:21 48.54278 7.13275 35247 ft 449 kts 105°
2026-04-26 09:21 48.52670 7.22381 35255 ft 449 kts 105°
2026-04-26 09:22 48.51057 7.31479 35261 ft 449 kts 105°
2026-04-26 09:22 48.49439 7.40566 35263 ft 449 kts 106°
2026-04-26 09:23 48.47804 7.49645 35265 ft 449 kts 106°
2026-04-26 09:23 48.46163 7.58716 35263 ft 449 kts 106°
2026-04-26 09:24 48.44516 7.67785 35259 ft 449 kts 107°
2026-04-26 09:24 48.42828 7.76830 35265 ft 448 kts 108°
2026-04-26 09:25 48.40907 7.85756 35260 ft 448 kts 110°
2026-04-26 09:25 48.38884 7.94623 35261 ft 448 kts 110°
2026-04-26 09:26 48.36886 8.03498 35255 ft 448 kts 110°
2026-04-26 09:26 48.34923 8.12395 35250 ft 448 kts 110°
2026-04-26 09:27 48.32978 8.21224 35240 ft 448 kts 110°
2026-04-26 09:27 48.30999 8.30106 35228 ft 448 kts 110°
2026-04-26 09:28 48.29012 8.38976 35225 ft 448 kts 110°
2026-04-26 09:28 48.27012 8.47845 35222 ft 448 kts 110°
2026-04-26 09:29 48.25011 8.56704 35223 ft 448 kts 110°
2026-04-26 09:29 48.23004 8.65558 35223 ft 448 kts 110°
2026-04-26 09:30 48.20987 8.74405 35217 ft 449 kts 111°
2026-04-26 09:30 48.18967 8.83259 35216 ft 449 kts 110°
2026-04-26 09:31 48.16934 8.92123 35213 ft 450 kts 111°
2026-04-26 09:31 48.14893 9.00978 35218 ft 450 kts 111°
2026-04-26 09:32 48.12840 9.09834 35218 ft 451 kts 111°
2026-04-26 09:32 48.10775 9.18695 35222 ft 451 kts 111°
2026-04-26 09:33 48.08720 9.27505 35227 ft 451 kts 111°
2026-04-26 09:33 48.06633 9.36414 35223 ft 451 kts 111°
2026-04-26 09:34 48.04564 9.45205 35224 ft 451 kts 111°
2026-04-26 09:34 48.02462 9.54053 35225 ft 451 kts 113°
2026-04-26 09:35 47.99499 9.62247 35225 ft 448 kts 124°
2026-04-26 09:35 47.96757 9.68819 35227 ft 449 kts 124°
2026-04-26 09:36 47.94772 9.73576 35226 ft 449 kts 124°
2026-04-26 09:36 47.91477 9.81503 35230 ft 450 kts 123°
2026-04-26 09:37 47.88179 9.89429 35235 ft 450 kts 124°
2026-04-26 09:37 47.84861 9.97334 35240 ft 450 kts 124°
2026-04-26 09:38 47.81582 10.05279 35243 ft 451 kts 122°
2026-04-26 09:38 47.78446 10.13350 35245 ft 451 kts 121°
2026-04-26 09:39 47.75327 10.21434 35243 ft 451 kts 121°
2026-04-26 09:39 47.72169 10.29482 35238 ft 451 kts 122°
2026-04-26 09:40 47.69006 10.37453 35234 ft 451 kts 122°
2026-04-26 09:40 47.65821 10.45466 35228 ft 451 kts 122°
2026-04-26 09:41 47.62612 10.53522 35224 ft 451 kts 122°
2026-04-26 09:41 47.59962 10.60169 35228 ft 451 kts 122°
2026-04-26 09:42 47.56764 10.68150 35227 ft 451 kts 122°
2026-04-26 09:42 47.53047 10.77411 35226 ft 450 kts 122°
2026-04-26 09:43 47.50367 10.84074 35222 ft 450 kts 122°
2026-04-26 09:43 47.47161 10.92021 35219 ft 450 kts 122°
2026-04-26 09:44 47.43940 10.99952 35223 ft 450 kts 122°
2026-04-26 09:44 47.40741 11.07820 35219 ft 450 kts 122°
2026-04-26 09:45 47.37520 11.15738 35215 ft 450 kts 122°
2026-04-26 09:45 47.34294 11.23637 35217 ft 450 kts 122°
2026-04-26 09:46 47.31065 11.31533 35208 ft 449 kts 122°
2026-04-26 09:46 47.27832 11.39417 35211 ft 450 kts 122°
2026-04-26 09:47 47.24585 11.47279 35214 ft 449 kts 122°
2026-04-26 09:47 47.21331 11.55134 35216 ft 450 kts 122°
2026-04-26 09:48 47.18074 11.62988 35214 ft 449 kts 122°
2026-04-26 09:48 47.14843 11.70771 35211 ft 449 kts 122°
2026-04-26 09:49 47.11583 11.78600 35209 ft 449 kts 122°
2026-04-26 09:49 47.08315 11.86413 35209 ft 450 kts 120°
2026-04-26 09:50 47.05516 11.94614 35207 ft 450 kts 116°
2026-04-26 09:50 47.02772 12.02856 35207 ft 450 kts 116°
2026-04-26 09:51 47.00014 12.11087 35214 ft 450 kts 117°
2026-04-26 09:51 46.97244 12.19306 35214 ft 450 kts 117°
2026-04-26 09:52 46.94474 12.27523 35213 ft 450 kts 117°
2026-04-26 09:52 46.90323 12.39763 35213 ft 450 kts 117°
2026-04-26 09:53 46.87541 12.47948 35208 ft 449 kts 117°
2026-04-26 09:53 46.84752 12.56127 35193 ft 450 kts 117°
2026-04-26 09:54 46.81955 12.64296 35181 ft 450 kts 117°
2026-04-26 09:54 46.79162 12.72459 35159 ft 450 kts 117°
2026-04-26 09:55 46.76357 12.80615 35147 ft 450 kts 117°
2026-04-26 09:55 46.73543 12.88760 35137 ft 450 kts 117°
2026-04-26 09:56 46.70723 12.96894 35132 ft 450 kts 117°
2026-04-26 09:56 46.67892 13.05020 35125 ft 450 kts 117°
2026-04-26 09:57 46.65086 13.13086 35122 ft 450 kts 117°
2026-04-26 09:57 46.62249 13.21206 35122 ft 450 kts 117°
2026-04-26 09:58 46.59402 13.29310 35119 ft 450 kts 117°
2026-04-26 09:58 46.56275 13.37168 35118 ft 449 kts 128°
2026-04-26 09:59 46.51845 13.43514 35118 ft 448 kts 141°
2026-04-26 09:59 46.47091 13.49373 35112 ft 448 kts 140°
2026-04-26 10:00 46.42343 13.55242 35110 ft 449 kts 140°
2026-04-26 10:00 46.37673 13.61008 35124 ft 428 kts 140°
2026-04-26 10:01 46.33232 13.66472 35124 ft 414 kts 141°
2026-04-26 10:01 46.28848 13.71821 35125 ft 412 kts 141°
2026-04-26 10:02 46.24471 13.77158 35123 ft 411 kts 141°
2026-04-26 10:02 46.20095 13.82490 35126 ft 411 kts 141°
2026-04-26 10:03 46.15723 13.87813 35117 ft 411 kts 141°
2026-04-26 10:03 46.11386 13.93087 35115 ft 411 kts 141°
2026-04-26 10:04 46.07011 13.98384 35106 ft 410 kts 141°
2026-04-26 10:04 46.02634 14.03661 35107 ft 411 kts 141°
2026-04-26 10:05 45.98256 14.08944 35103 ft 411 kts 141°
2026-04-26 10:05 45.93876 14.14217 35109 ft 411 kts 141°
2026-04-26 10:06 45.89489 14.19482 35101 ft 411 kts 141°
2026-04-26 10:06 45.85099 14.24733 35102 ft 411 kts 141°
2026-04-26 10:07 45.80708 14.29982 35107 ft 411 kts 141°
2026-04-26 10:07 45.76344 14.35191 35106 ft 411 kts 141°
2026-04-26 10:08 45.71946 14.40424 35101 ft 411 kts 141°
2026-04-26 10:08 45.67546 14.45652 35105 ft 411 kts 141°
2026-04-26 10:09 45.63143 14.50879 35106 ft 412 kts 141°
2026-04-26 10:09 45.58731 14.56091 35098 ft 412 kts 141°
2026-04-26 10:10 45.54312 14.61301 35100 ft 412 kts 141°
2026-04-26 10:10 45.49893 14.66512 35097 ft 412 kts 141°
2026-04-26 10:11 45.45468 14.71714 35100 ft 412 kts 141°
2026-04-26 10:11 45.41045 14.76907 35098 ft 412 kts 141°
2026-04-26 10:12 45.36640 14.82056 35094 ft 413 kts 141°
2026-04-26 10:12 45.32201 14.87238 35097 ft 413 kts 141°
2026-04-26 10:13 45.27763 14.92414 35104 ft 413 kts 141°
2026-04-26 10:13 45.23326 14.97585 35102 ft 413 kts 141°
2026-04-26 10:14 45.18887 15.02738 35103 ft 412 kts 141°
2026-04-26 10:14 45.14444 15.07877 35113 ft 412 kts 142°
2026-04-26 10:15 45.10001 15.13011 35102 ft 413 kts 142°
2026-04-26 10:15 45.05551 15.18144 35099 ft 413 kts 142°
2026-04-26 10:16 45.01131 15.23239 35111 ft 413 kts 142°
2026-04-26 10:16 44.96679 15.28356 35106 ft 412 kts 142°
2026-04-26 10:17 44.92227 15.33460 35111 ft 412 kts 142°
2026-04-26 10:17 44.87769 15.38555 35105 ft 412 kts 142°
2026-04-26 10:18 44.83314 15.43645 35112 ft 412 kts 142°
2026-04-26 10:18 44.78862 15.48723 35097 ft 412 kts 142°
2026-04-26 10:19 44.74404 15.53790 35110 ft 412 kts 142°
2026-04-26 10:19 44.69974 15.58813 35103 ft 412 kts 142°
2026-04-26 10:20 44.66237 15.63039 35111 ft 412 kts 142°
2026-04-26 10:20 44.61058 15.68899 35106 ft 411 kts 142°
2026-04-26 10:21 44.56600 15.73932 35103 ft 411 kts 142°
2026-04-26 10:21 44.52143 15.78951 35101 ft 411 kts 142°
2026-04-26 10:22 44.47684 15.83952 35099 ft 410 kts 142°
2026-04-26 10:22 44.43227 15.88943 35094 ft 410 kts 142°
2026-04-26 10:23 44.38775 15.93926 35095 ft 410 kts 142°
2026-04-26 10:23 44.34355 15.98863 35093 ft 409 kts 142°
2026-04-26 10:24 44.29905 16.03821 35090 ft 409 kts 142°
2026-04-26 10:24 44.25456 16.08769 35088 ft 409 kts 142°
2026-04-26 10:25 44.21005 16.13703 35088 ft 409 kts 142°
2026-04-26 10:25 44.16553 16.18632 35088 ft 409 kts 142°
2026-04-26 10:26 44.12107 16.23551 35087 ft 408 kts 142°
2026-04-26 10:26 44.07687 16.28426 35088 ft 408 kts 142°
2026-04-26 10:27 44.03239 16.33321 35088 ft 408 kts 142°
2026-04-26 10:27 43.98794 16.38215 35085 ft 408 kts 142°
2026-04-26 10:28 43.94348 16.43092 35089 ft 407 kts 142°
2026-04-26 10:28 43.89899 16.47963 35087 ft 407 kts 142°
2026-04-26 10:29 43.85451 16.52828 35089 ft 407 kts 142°
2026-04-26 10:29 43.80997 16.57682 35086 ft 407 kts 142°
2026-04-26 10:30 43.76546 16.62523 35088 ft 407 kts 142°
2026-04-26 10:30 43.72098 16.67359 35091 ft 407 kts 142°
2026-04-26 10:31 43.67668 16.72153 35086 ft 407 kts 142°
2026-04-26 10:31 43.63217 16.76977 35083 ft 407 kts 142°
2026-04-26 10:32 43.58763 16.81791 35087 ft 407 kts 142°
2026-04-26 10:32 43.54302 16.86595 35084 ft 407 kts 142°
2026-04-26 10:33 43.49841 16.91389 35083 ft 406 kts 142°
2026-04-26 10:33 43.45382 16.96181 35083 ft 407 kts 142°
2026-04-26 10:34 43.40921 17.00958 35084 ft 407 kts 142°
2026-04-26 10:34 43.36455 17.05730 35085 ft 407 kts 142°
2026-04-26 10:35 43.32020 17.10462 35088 ft 406 kts 142°
2026-04-26 10:35 43.27552 17.15224 35086 ft 406 kts 142°
2026-04-26 10:36 43.23091 17.19975 35092 ft 406 kts 142°
2026-04-26 10:36 43.18625 17.24718 35086 ft 406 kts 142°
2026-04-26 10:37 43.14157 17.29450 35084 ft 406 kts 142°
2026-04-26 10:37 43.09686 17.34177 35087 ft 406 kts 142°
2026-04-26 10:38 43.05222 17.38891 35087 ft 406 kts 142°
2026-04-26 10:38 43.00784 17.43568 35087 ft 405 kts 142°
2026-04-26 10:39 42.96312 17.48264 35091 ft 405 kts 142°
2026-04-26 10:39 42.91837 17.52949 35091 ft 405 kts 142°
2026-04-26 10:40 42.87395 17.57685 35093 ft 405 kts 141°
2026-04-26 10:40 42.83034 17.62555 35089 ft 405 kts 140°
2026-04-26 10:41 42.78683 17.67423 35090 ft 405 kts 140°
2026-04-26 10:41 42.74318 17.72262 35087 ft 405 kts 141°
2026-04-26 10:42 42.70678 17.76260 35092 ft 405 kts 141°
2026-04-26 10:42 42.65587 17.81837 35093 ft 404 kts 141°
2026-04-26 10:43 42.61211 17.86629 35098 ft 404 kts 141°
2026-04-26 10:43 42.56841 17.91417 35099 ft 404 kts 140°
2026-04-26 10:44 42.52469 17.96201 35099 ft 403 kts 140°
2026-04-26 10:44 42.48101 18.00966 35102 ft 403 kts 140°
2026-04-26 10:45 42.43728 18.05721 35102 ft 403 kts 140°
2026-04-26 10:45 42.39356 18.10458 35102 ft 403 kts 140°
2026-04-26 10:46 42.34987 18.15188 35101 ft 402 kts 140°
2026-04-26 10:46 42.31360 18.19120 35098 ft 402 kts 140°
2026-04-26 10:47 42.26994 18.23842 35098 ft 402 kts 140°
2026-04-26 10:47 42.22627 18.28545 35094 ft 401 kts 140°
2026-04-26 10:48 42.18266 18.33247 35092 ft 401 kts 140°
2026-04-26 10:48 42.13904 18.37938 35093 ft 401 kts 140°
2026-04-26 10:49 42.09537 18.42613 35096 ft 401 kts 140°
2026-04-26 10:49 42.05203 18.47251 35097 ft 401 kts 140°
2026-04-26 10:50 42.00845 18.51912 35097 ft 400 kts 140°
2026-04-26 10:50 41.96485 18.56572 35099 ft 400 kts 140°
2026-04-26 10:51 41.89941 18.63523 35101 ft 400 kts 140°
2026-04-26 10:52 41.85582 18.68153 35098 ft 399 kts 139°
2026-04-26 10:52 41.81226 18.72773 35099 ft 399 kts 139°
2026-04-26 10:53 41.76871 18.77385 35104 ft 399 kts 139°
2026-04-26 10:53 41.72517 18.81991 35101 ft 399 kts 139°
2026-04-26 10:54 41.65982 18.88875 35097 ft 398 kts 139°
2026-04-26 10:54 41.61626 18.93456 35096 ft 398 kts 139°
2026-04-26 10:55 41.57303 18.97999 35097 ft 398 kts 139°
2026-04-26 10:55 41.52951 19.02557 35096 ft 398 kts 139°
2026-04-26 10:56 41.48598 19.07106 35098 ft 397 kts 139°
2026-04-26 10:56 41.43863 19.10937 35094 ft 402 kts 155°
2026-04-26 10:57 41.38618 19.13540 35087 ft 403 kts 157°
2026-04-26 10:57 41.33358 19.16110 35088 ft 403 kts 156°
2026-04-26 10:58 41.28101 19.18674 35088 ft 402 kts 156°
2026-04-26 10:58 41.22841 19.21234 35091 ft 403 kts 156°
2026-04-26 10:59 41.17517 19.23823 35096 ft 418 kts 156°
2026-04-26 10:59 41.11956 19.26526 35100 ft 433 kts 156°
2026-04-26 11:00 41.06269 19.29285 35096 ft 437 kts 156°
2026-04-26 11:00 41.00554 19.32039 35094 ft 437 kts 156°
2026-04-26 11:01 40.94834 19.34791 35090 ft 437 kts 156°
2026-04-26 11:01 40.89120 19.37545 35088 ft 437 kts 156°
2026-04-26 11:02 40.83442 19.40275 35079 ft 437 kts 156°
2026-04-26 11:02 40.77729 19.43014 35077 ft 437 kts 156°
2026-04-26 11:03 40.72017 19.45751 35079 ft 437 kts 156°
2026-04-26 11:03 40.66309 19.48485 35077 ft 436 kts 156°
2026-04-26 11:04 40.60597 19.51207 35076 ft 436 kts 156°
2026-04-26 11:04 40.54888 19.53926 35064 ft 436 kts 157°
2026-04-26 11:05 40.49177 19.56638 35065 ft 437 kts 156°
2026-04-26 11:05 40.43460 19.59348 35061 ft 436 kts 156°
2026-04-26 11:06 40.37748 19.62055 35060 ft 436 kts 156°
2026-04-26 11:06 40.32036 19.64753 35056 ft 436 kts 156°
2026-04-26 11:07 40.26368 19.67425 35054 ft 436 kts 156°
2026-04-26 11:07 40.20663 19.70103 34772 ft 434 kts 156°
2026-04-26 11:08 40.17828 19.71430 34530 ft 431 kts 156°
2026-04-26 11:08 40.15015 19.72748 34291 ft 429 kts 156°
2026-04-26 11:08 40.12213 19.74062 34045 ft 427 kts 156°
2026-04-26 11:08 40.09422 19.75373 33776 ft 426 kts 156°
2026-04-26 11:09 40.06640 19.76679 33502 ft 424 kts 156°
2026-04-26 11:09 40.03867 19.77978 33233 ft 422 kts 156°
2026-04-26 11:09 40.01104 19.79270 32965 ft 421 kts 156°
2026-04-26 11:09 39.98356 19.80555 32698 ft 419 kts 156°
2026-04-26 11:10 39.95619 19.81830 32434 ft 417 kts 156°
2026-04-26 11:10 39.92889 19.83102 32174 ft 415 kts 156°
2026-04-26 11:10 39.90175 19.84364 31918 ft 414 kts 156°
2026-04-26 11:10 39.87477 19.85647 31664 ft 412 kts 156°
2026-04-26 11:11 39.84808 19.86974 31411 ft 410 kts 155°
2026-04-26 11:11 39.82160 19.88323 31164 ft 408 kts 155°
2026-04-26 11:11 39.79529 19.89678 30920 ft 406 kts 155°
2026-04-26 11:11 39.76904 19.91024 30666 ft 404 kts 155°
2026-04-26 11:12 39.74289 19.92355 30423 ft 403 kts 155°
2026-04-26 11:12 39.71681 19.93669 30190 ft 402 kts 155°
2026-04-26 11:12 39.69079 19.94973 29926 ft 400 kts 155°
2026-04-26 11:12 39.66522 19.96249 29639 ft 398 kts 156°
2026-04-26 11:13 39.63940 19.97535 29360 ft 397 kts 156°
2026-04-26 11:13 39.61371 19.98817 29080 ft 395 kts 156°
2026-04-26 11:13 39.58812 20.00092 28809 ft 393 kts 156°
2026-04-26 11:13 39.56266 20.01361 28526 ft 391 kts 156°
2026-04-26 11:14 39.53729 20.02625 28263 ft 390 kts 156°
2026-04-26 11:14 39.51201 20.03882 27995 ft 388 kts 156°
2026-04-26 11:14 39.48685 20.05132 27734 ft 387 kts 156°
2026-04-26 11:14 39.46169 20.06349 27468 ft 386 kts 159°
2026-04-26 11:15 39.43559 20.07182 27209 ft 387 kts 168°
2026-04-26 11:15 39.40873 20.07502 26954 ft 388 kts 175°
2026-04-26 11:15 39.38178 20.07642 26704 ft 387 kts 175°
2026-04-26 11:15 39.35493 20.07793 26446 ft 386 kts 175°
2026-04-26 11:16 39.32816 20.07951 26201 ft 384 kts 175°
2026-04-26 11:16 39.30149 20.08111 25953 ft 383 kts 175°
2026-04-26 11:16 39.27495 20.08270 25710 ft 381 kts 175°
2026-04-26 11:16 39.24849 20.08426 25471 ft 380 kts 175°
2026-04-26 11:17 39.22210 20.08582 25229 ft 379 kts 175°
2026-04-26 11:17 39.19581 20.08734 24995 ft 378 kts 175°
2026-04-26 11:17 39.16962 20.08886 24756 ft 376 kts 175°
2026-04-26 11:17 39.14386 20.09036 24529 ft 375 kts 175°
2026-04-26 11:18 39.11782 20.09186 24295 ft 374 kts 175°
2026-04-26 11:18 39.09187 20.09334 24066 ft 373 kts 175°
2026-04-26 11:18 39.06600 20.09481 23842 ft 371 kts 175°
2026-04-26 11:18 39.04024 20.09630 23602 ft 370 kts 175°
2026-04-26 11:19 39.01455 20.09776 23322 ft 369 kts 175°
2026-04-26 11:19 38.98896 20.09923 23060 ft 367 kts 175°
2026-04-26 11:19 38.96349 20.10070 22789 ft 366 kts 175°
2026-04-26 11:19 38.93813 20.10214 22525 ft 364 kts 175°
2026-04-26 11:20 38.91289 20.10360 22262 ft 363 kts 175°
2026-04-26 11:20 38.89621 20.10456 22088 ft 362 kts 175°
2026-04-26 11:20 38.86267 20.10650 21742 ft 360 kts 175°
2026-04-26 11:20 38.83772 20.10795 21482 ft 358 kts 175°
2026-04-26 11:21 38.81287 20.10939 21228 ft 357 kts 175°
2026-04-26 11:21 38.78809 20.11082 20975 ft 356 kts 175°
2026-04-26 11:21 38.76377 20.11220 20728 ft 354 kts 175°
2026-04-26 11:21 38.73920 20.11359 20480 ft 353 kts 175°
2026-04-26 11:22 38.71469 20.11499 20233 ft 352 kts 175°
2026-04-26 11:22 38.69033 20.11638 19988 ft 350 kts 175°
2026-04-26 11:22 38.66602 20.11775 19745 ft 349 kts 175°
2026-04-26 11:22 38.64182 20.11913 19507 ft 348 kts 176°
2026-04-26 11:23 38.61777 20.12050 19254 ft 343 kts 176°
2026-04-26 11:23 38.59397 20.12184 18871 ft 342 kts 176°
2026-04-26 11:23 38.57015 20.12317 18466 ft 342 kts 176°
2026-04-26 11:23 38.54636 20.12454 18018 ft 342 kts 176°
2026-04-26 11:24 38.52261 20.12595 17612 ft 341 kts 176°
2026-04-26 11:24 38.49926 20.12732 17218 ft 340 kts 176°
2026-04-26 11:24 38.47568 20.12868 16820 ft 339 kts 176°
2026-04-26 11:24 38.45215 20.13001 16427 ft 338 kts 176°
2026-04-26 11:25 38.42891 20.13344 16042 ft 335 kts 164°
2026-04-26 11:25 38.40719 20.14372 15652 ft 332 kts 149°
2026-04-26 11:25 38.38830 20.16026 15274 ft 328 kts 135°
2026-04-26 11:25 38.37210 20.18056 14897 ft 327 kts 133°
2026-04-26 11:26 38.35598 20.20094 14518 ft 326 kts 133°
2026-04-26 11:26 38.33983 20.22123 14131 ft 326 kts 133°
2026-04-26 11:26 38.32367 20.24148 13741 ft 326 kts 133°
2026-04-26 11:26 38.30751 20.26170 13333 ft 325 kts 133°
2026-04-26 11:27 38.29146 20.28179 12955 ft 323 kts 133°
2026-04-26 11:27 38.27549 20.30180 12567 ft 321 kts 133°
2026-04-26 11:27 38.25958 20.32173 12190 ft 320 kts 133°
2026-04-26 11:27 38.24376 20.34154 11787 ft 319 kts 133°
2026-04-26 11:28 38.22818 20.36103 11395 ft 318 kts 133°
2026-04-26 11:28 38.21245 20.38068 10997 ft 318 kts 133°
2026-04-26 11:28 38.19668 20.40037 10594 ft 318 kts 133°
2026-04-26 11:28 38.18094 20.42004 10187 ft 317 kts 134°
2026-04-26 11:29 38.16527 20.43961 9913 ft 313 kts 134°
2026-04-26 11:29 38.14996 20.45864 9755 ft 303 kts 134°
2026-04-26 11:29 38.13503 20.47714 9457 ft 298 kts 134°
2026-04-26 11:29 38.12027 20.49545 9104 ft 296 kts 134°
2026-04-26 11:30 38.10502 20.51293 8805 ft 294 kts 139°
2026-04-26 11:30 38.09455 20.52383 8560 ft 293 kts 139°
2026-04-26 11:30 38.07356 20.54569 8063 ft 291 kts 139°
2026-04-26 11:30 38.05800 20.56191 7690 ft 288 kts 139°
2026-04-26 11:31 38.04255 20.57800 7323 ft 287 kts 139°
2026-04-26 11:31 38.02718 20.59397 6941 ft 285 kts 139°
2026-04-26 11:31 38.01190 20.60984 6568 ft 283 kts 139°
2026-04-26 11:31 37.99714 20.62608 6123 ft 278 kts 130°
2026-04-26 11:32 37.98638 20.64607 5427 ft 274 kts 119°
2026-04-26 11:32 37.97666 20.66679 4735 ft 273 kts 119°
2026-04-26 11:32 37.96701 20.68747 4033 ft 272 kts 119°
2026-04-26 11:32 37.95762 20.70752 3734 ft 256 kts 119°
2026-04-26 11:33 37.94891 20.72609 3597 ft 236 kts 119°
2026-04-26 11:33 37.94066 20.74362 3495 ft 228 kts 119°
2026-04-26 11:33 37.93270 20.76049 3393 ft 219 kts 119°
2026-04-26 11:33 37.92507 20.77674 3292 ft 211 kts 119°
2026-04-26 11:34 37.91782 20.79218 3199 ft 203 kts 119°
2026-04-26 11:34 37.91066 20.80735 3104 ft 199 kts 121°
2026-04-26 11:34 37.90135 20.81991 3026 ft 192 kts 146°
2026-04-26 11:34 37.88952 20.82686 2800 ft 188 kts 161°
2026-04-26 11:35 37.87713 20.83269 2463 ft 188 kts 158°
2026-04-26 11:35 37.86523 20.83875 2247 ft 181 kts 158°
2026-04-26 11:35 37.85370 20.84421 2007 ft 172 kts 161°
2026-04-26 11:35 37.84632 20.84732 1883 ft 165 kts 162°
2026-04-26 11:36 37.83234 20.85346 1671 ft 155 kts 161°
2026-04-26 11:36 37.82211 20.85762 1507 ft 154 kts 164°
2026-04-26 11:36 37.81192 20.86136 1366 ft 152 kts 165°
2026-04-26 11:36 37.80186 20.86504 1089 ft 149 kts 164°
2026-04-26 11:37 37.79198 20.86886 815 ft 147 kts 163°
2026-04-26 11:37 37.78222 20.87241 571 ft 145 kts 164°
2026-04-26 11:37 37.77259 20.87606 347 ft 144 kts 162°
2026-04-26 11:37 37.76296 20.87975 148 ft 145 kts 163°
2026-04-26 11:38 37.75351 20.88331 20 ft 129 kts 164°
2026-04-26 11:38 37.74783 20.88542 21 ft 42 kts 163°
2026-04-26 11:38 37.74642 20.88573 21 ft 17 kts 196°
2026-04-26 11:38 37.74625 20.88614 21 ft 11 kts 349°
2026-04-26 11:39 37.74727 20.88562 23 ft 19 kts 342°
2026-04-26 11:39 37.74857 20.88515 20 ft 21 kts 344°
2026-04-26 11:39 37.75000 20.88466 18 ft 18 kts 351°
2026-04-26 11:39 37.75105 20.88520 22 ft 16 kts 26°
2026-04-26 11:40 37.75217 20.88498 20 ft 18 kts 343°
2026-04-26 11:40 37.75343 20.88453 20 ft 18 kts 343°
2026-04-26 11:40 37.75395 20.88460 20 ft 6 kts 65°
2026-04-26 11:40 37.75405 20.88503 20 ft 5 kts 73°
2026-04-26 11:41 37.75409 20.88522 20 ft 0 kts 74°